Valle del Fuerte International Airport

Jump to: basic info | weather | frequencies | runways | comments

Related pages: nearby airports | nearby navaids | notams | map

Basic information (top)

Codes: LMM MMLM
Location: lon 25.685200, lat -109.081001, elev 16 ft / 5 m msl
Status: medium_airport
Scheduled airline service: yes
Links: Wikipedia Mobile

Weather (top)

Current conditions (rec'd 2015/01/28 11:42Z):

MMLM 281142Z 34012KT 8SM SCT100 SCT220 18/16 A2999 RMK SLP156 8/058 RTS

Airport forecast (rec'd 2015/01/26 06:18Z):

TAF MMLM 260516Z 2606/2706 13005KT P6SM BKN070 OVC200 
      TEMPO 2612/2616 5SM RA 
     FM261600 13010KT P6SM BKN030 OVC100 
      TEMPO 2616/2620 5SM RA 
     FM262100 15010KT P6SM BKN020 OVC070 
     FM270100 13005KT P6SM BKN080 BKN250

Frequencies (top)

Verify before use: may be inaccurate or out of date.

TWR: 118.8 MHz (MOCHIS TWR)

Runways (top)

09/27: 6,562 x 148 ft (2,000 x 45 m) — paved — lighted

Latest comments (top)

No comments yet for Valle del Fuerte International Airport

More... (top)

See also NOTAMs and nearby airports and navaids, or visit the Valle del Fuerte International Airport page at the main OurAirports website..